Location: Innsbruck
(47.2657°N, 11.3914°E)
Time: 16:46:13
(UTC+01:00)

FALCONSAT 3 - Visible Passes

Search period start: 28 November 2021 00:00
Search period end: 08 December 2021 00:00
Orbit: 435 x 439 km, 35.4° (Epoch: 28 November)

Date Brightness Start Highest point End Pass type
(mag) Time Alt. Az. Time Alt. Az. Time Alt. Az.
03 Dec ? 07:02:48 10° SSW 07:04:04 12° S 07:05:21 10° SSE visible
04 Dec ? 06:19:42 10° S 06:20:46 11° S 06:21:49 10° SSE visible
05 Dec ? 05:36:47 10° S 05:37:26 10° S 05:38:05 10° SSE visible
06 Dec ? 06:30:15 10° SSW 06:31:39 12° S 06:33:03 10° SSE visible
07 Dec ? 05:47:13 11° SSW 05:48:18 12° S 05:49:44 10° SSE visible
